When you browse on this site, cookies collect data to enhance your experience and personalize the content and advertising you see.
Visit our Privacy Policy to learn more. By continuing to use the site, you agree to this use of cookies and data.

Hourly Weather Zaprose

Today, 6 July, Monday

Time Temperature Precipitation Wind Pressure Humidity
00:00 +19°C° 0 mm 2 mps 747 mmHg 88%
01:00 +19°C° 0 mm 2 mps 747 mmHg 90%
02:00 +18°C° 0 mm 2 mps 747 mmHg 94%
03:00 +18°C° 0 mm 2 mps 747 mmHg 94%
04:00 +19°C° 0 mm 2 mps 747 mmHg 94%
05:00 +19°C° 0 mm 2 mps 746 mmHg 94%
06:00 +20°C° 0 mm 2 mps 746 mmHg 88%
07:00 +22°C° 0 mm 3 mps 746 mmHg 83%
08:00 +25°C° 0 mm 3 mps 746 mmHg 77%
09:00 +26°C° 0 mm 3 mps 746 mmHg 72%
10:00 +27°C° 0 mm 3 mps 746 mmHg 67%
11:00 +28°C° 0 mm 3 mps 745 mmHg 61%
12:00 +29°C° 0 mm 3 mps 745 mmHg 60%
13:00 +29°C° 0 mm 4 mps 745 mmHg 58%
14:00 +30°C° 0 mm 4 mps 744 mmHg 56%
15:00 +30°C° 0 mm 4 mps 744 mmHg 58%
16:00 +30°C° 0 mm 3 mps 743 mmHg 60%
17:00 +30°C° 0 mm 3 mps 743 mmHg 62%
18:00 +28°C° 0.3 mm 3 mps 743 mmHg 70%
19:00 +26°C° 0.3 mm 2 mps 743 mmHg 77%
20:00 +24°C° 0.3 mm 2 mps 743 mmHg 85%
21:00 +23°C° 0.8 mm 2 mps 743 mmHg 88%
22:00 +21°C° 0.8 mm 2 mps 743 mmHg 91%
23:00 +21°C° 0.8 mm 1 mps 743 mmHg 94%

Tomorrow, 7 July, Tuesday

Time Temperature Precipitation Wind Pressure Humidity
00:00 +20°C° 1.3 mm 2 mps 743 mmHg 94%
01:00 +20°C° 1.3 mm 2 mps 743 mmHg 95%
02:00 +19°C° 1.3 mm 3 mps 743 mmHg 95%
03:00 +19°C° 0.8 mm 3 mps 743 mmHg 96%
04:00 +18°C° 0.8 mm 4 mps 743 mmHg 96%
05:00 +17°C° 0.8 mm 5 mps 743 mmHg 96%
06:00 +16°C° 0.8 mm 5 mps 743 mmHg 96%
07:00 +16°C° 0.8 mm 5 mps 744 mmHg 96%
08:00 +15°C° 0.8 mm 4 mps 744 mmHg 95%
09:00 +15°C° 0.3 mm 4 mps 744 mmHg 94%
10:00 +14°C° 0.3 mm 5 mps 745 mmHg 93%
11:00 +14°C° 0.3 mm 5 mps 745 mmHg 92%
12:00 +14°C° 0.2 mm 5 mps 745 mmHg 93%
13:00 +13°C° 0.2 mm 4 mps 746 mmHg 93%
14:00 +13°C° 0.2 mm 4 mps 746 mmHg 93%
15:00 +13°C° 0.8 mm 3 mps 746 mmHg 94%
16:00 +13°C° 0.8 mm 3 mps 746 mmHg 95%
17:00 +14°C° 0.8 mm 2 mps 747 mmHg 96%
18:00 +14°C° 0.2 mm 2 mps 747 mmHg 96%
19:00 +14°C° 0.2 mm 2 mps 747 mmHg 96%
20:00 +14°C° 0.2 mm 1 mps 747 mmHg 96%
21:00 +14°C° 0 mm 2 mps 747 mmHg 96%
22:00 +12°C° 0 mm 3 mps 747 mmHg 95%
23:00 +12°C° 0 mm 3 mps 748 mmHg 95%

Day after tomorrow, 8 July, Wednesday

Time Temperature Precipitation Wind Pressure Humidity
00:00 +11°C° 0 mm 3 mps 748 mmHg 95%
01:00 +11°C° 0 mm 3 mps 748 mmHg 94%
02:00 +10°C° 0 mm 3 mps 748 mmHg 94%
03:00 +10°C° 0 mm 3 mps 748 mmHg 95%
04:00 +10°C° 0 mm 3 mps 748 mmHg 95%
05:00 +9°C° 0 mm 3 mps 748 mmHg 95%
06:00 +11°C° 0 mm 3 mps 749 mmHg 90%
07:00 +12°C° 0 mm 3 mps 749 mmHg 85%
08:00 +14°C° 0 mm 3 mps 749 mmHg 80%
09:00 +15°C° 0 mm 4 mps 749 mmHg 74%
10:00 +18°C° 0 mm 4 mps 749 mmHg 67%
11:00 +19°C° 0 mm 4 mps 749 mmHg 61%
12:00 +19°C° 0 mm 4 mps 749 mmHg 60%
13:00 +20°C° 0 mm 4 mps 749 mmHg 59%
14:00 +20°C° 0 mm 4 mps 749 mmHg 58%
15:00 +20°C° 0 mm 4 mps 749 mmHg 59%
16:00 +20°C° 0 mm 3 mps 749 mmHg 61%
17:00 +20°C° 0 mm 3 mps 749 mmHg 62%
18:00 +19°C° 0 mm 3 mps 749 mmHg 68%
19:00 +17°C° 0 mm 3 mps 749 mmHg 75%
20:00 +16°C° 0 mm 2 mps 749 mmHg 82%
21:00 +16°C° 0 mm 2 mps 749 mmHg 83%
22:00 +15°C° 0 mm 2 mps 749 mmHg 85%
23:00 +15°C° 0 mm 2 mps 750 mmHg 86%

9 July, Thursday

Time Temperature Precipitation Wind Pressure Humidity
00:00 +14°C° 0 mm 2 mps 750 mmHg 90%
01:00 +13°C° 0 mm 2 mps 750 mmHg 93%
02:00 +12°C° 0 mm 2 mps 750 mmHg 97%
03:00 +10°C° 0 mm 2 mps 750 mmHg 97%
04:00 +10°C° 0 mm 2 mps 750 mmHg 97%
05:00 +10°C° 0 mm 3 mps 750 mmHg 97%
06:00 +11°C° 0 mm 3 mps 751 mmHg 91%
07:00 +13°C° 0 mm 3 mps 751 mmHg 86%
08:00 +14°C° 0 mm 3 mps 751 mmHg 80%
09:00 +16°C° 0.1 mm 3 mps 752 mmHg 76%
10:00 +17°C° 0.1 mm 3 mps 752 mmHg 73%
11:00 +18°C° 0.1 mm 3 mps 752 mmHg 70%
12:00 +19°C° 0.5 mm 3 mps 752 mmHg 69%
13:00 +19°C° 0.5 mm 3 mps 752 mmHg 69%
14:00 +20°C° 0.5 mm 4 mps 752 mmHg 69%
15:00 +20°C° 0.2 mm 3 mps 752 mmHg 69%
16:00 +20°C° 0.2 mm 3 mps 752 mmHg 69%
17:00 +20°C° 0.2 mm 3 mps 752 mmHg 69%
18:00 +18°C° 0.1 mm 3 mps 752 mmHg 74%
19:00 +17°C° 0.1 mm 2 mps 752 mmHg 80%
20:00 +16°C° 0.1 mm 2 mps 752 mmHg 85%
21:00 +15°C° 0 mm 2 mps 752 mmHg 87%
22:00 +14°C° 0 mm 1 mps 753 mmHg 89%
23:00 +13°C° 0 mm 1 mps 753 mmHg 90%

10 July, Friday

Time Temperature Precipitation Wind Pressure Humidity
00:00 +13°C° 0 mm 1 mps 753 mmHg 91%
01:00 +12°C° 0 mm 1 mps 753 mmHg 91%
02:00 +12°C° 0 mm 1 mps 753 mmHg 92%
03:00 +12°C° 0 mm 1 mps 753 mmHg 92%
04:00 +12°C° 0 mm 1 mps 753 mmHg 91%
05:00 +12°C° 0 mm 1 mps 753 mmHg 91%
06:00 +14°C° 0 mm 1 mps 753 mmHg 85%
07:00 +16°C° 0 mm 1 mps 753 mmHg 79%
08:00 +19°C° 0 mm 1 mps 753 mmHg 73%
09:00 +19°C° 0 mm 2 mps 753 mmHg 67%
10:00 +20°C° 0 mm 2 mps 753 mmHg 60%
11:00 +23°C° 0 mm 2 mps 753 mmHg 54%
12:00 +23°C° 0 mm 2 mps 752 mmHg 53%
13:00 +24°C° 0 mm 3 mps 752 mmHg 52%
14:00 +25°C° 0 mm 3 mps 751 mmHg 51%
15:00 +25°C° 0 mm 3 mps 751 mmHg 53%
16:00 +25°C° 0 mm 3 mps 751 mmHg 55%
17:00 +25°C° 0 mm 3 mps 750 mmHg 58%
18:00 +24°C° 0 mm 3 mps 750 mmHg 65%
19:00 +21°C° 0 mm 3 mps 750 mmHg 72%
20:00 +20°C° 0 mm 3 mps 749 mmHg 79%
21:00 +19°C° 0 mm 4 mps 749 mmHg 80%
22:00 +19°C° 0 mm 4 mps 749 mmHg 81%
23:00 +19°C° 0 mm 5 mps 748 mmHg 82%

11 July, Saturday

Time Temperature Precipitation Wind Pressure Humidity
00:00 +19°C° 0.2 mm 5 mps 748 mmHg 85%
01:00 +19°C° 0.2 mm 5 mps 748 mmHg 87%
02:00 +19°C° 0.2 mm 5 mps 748 mmHg 89%
03:00 +19°C° 0.5 mm 4 mps 748 mmHg 91%
04:00 +19°C° 0.5 mm 4 mps 748 mmHg 94%
05:00 +19°C° 0.5 mm 4 mps 749 mmHg 96%
06:00 +19°C° 0.1 mm 4 mps 749 mmHg 93%
07:00 +19°C° 0.1 mm 4 mps 750 mmHg 89%
08:00 +19°C° 0.1 mm 4 mps 750 mmHg 85%
09:00 +19°C° 0 mm 4 mps 750 mmHg 77%
10:00 +19°C° 0 mm 4 mps 751 mmHg 68%
11:00 +20°C° 0 mm 4 mps 751 mmHg 60%
12:00 +20°C° 0 mm 5 mps 751 mmHg 59%
13:00 +20°C° 0 mm 5 mps 751 mmHg 58%
14:00 +21°C° 0 mm 5 mps 751 mmHg 57%
15:00 +21°C° 0 mm 5 mps 751 mmHg 58%
16:00 +21°C° 0 mm 5 mps 751 mmHg 59%
17:00 +20°C° 0 mm 5 mps 751 mmHg 60%
18:00 +19°C° 0 mm 4 mps 751 mmHg 66%
19:00 +18°C° 0 mm 4 mps 751 mmHg 71%
20:00 +16°C° 0 mm 3 mps 752 mmHg 77%
21:00 +14°C° 0 mm 3 mps 752 mmHg 79%
22:00 +13°C° 0 mm 3 mps 752 mmHg 82%
23:00 +12°C° 0 mm 3 mps 753 mmHg 84%
Show more